Temp
72 75 79 79 79 79 79 79 79 78 78 78 78 78 78 78 78 77 77 77 77 78 78 79 79 79 78 78 78 77 77 77 77 77 76 77 78 77 77 77 76 75 77
72 75 78 78 79 79 79 79 78 77 77 78 78 78 78 78 78 77 77 77 78 78 79 78 78 78 78 78 77 76 76 76 75 75 74 74 75 77 77 76 76 75 77
72 77 77 78 78 78 78 78 77 77 77 77 78 78 78 78 78 78 78 77 78 78 78 78 78 77 77 77 76 76 75 75 74 74 74 70 70 77 77 76 76 76 76
72 72 75 77 78 78 78 78 77 77 77 77 77 78 78 78 78 77 77 77 77 78 77 77 77 76 76 76 76 76 75 75 74 73 70 72 73 76 77 76 76 76 76
69 71 74 76 76 76 76 76 77 77 78 77 77 77 77 78 78 78 78 77 77 76 76 76 76 76 76 75 75 76 76 75 73 72 68 68 67 74 77 77 77 76 75
67 69 73 75 75 75 75 75 76 76 76 76 76 77 77 77 78 78 77 76 76 76 76 76 76 76 75 75 75 75 75 75 73 67 66 68 70 75 78 77 76 76 75
65 68 71 75 76 76 76 75 75 75 75 75 75 76 76 77 77 77 76 76 76 76 76 76 76 76 76 75 75 76 75 73 70 67 66 67 69 76 78 77 76 76 76
64 66 66 71 73 74 75 75 75 75 75 76 76 75 76 75 75 75 76 76 76 76 76 76 76 76 76 75 75 75 74 72 70 67 66 67 71 76 79 77 76 76 76
63 63 62 62 66 69 71 71 72 73 74 74 74 74 74 73 73 75 75 75 76 76 76 75 76 76 75 75 75 74 72 71 67 66 68 67 71 76 79 78 76 76 76
60 60 60 59 61 60 62 68 69 70 70 71 70 69 68 68 69 71 71 71 73 75 75 75 75 75 75 75 74 73 71 70 67 67 66 67 72 75 78 78 77 76 76
60 58 58 58 58 59 63 64 63 66 66 66 65 66 63 61 62 64 66 68 70 72 72 74 75 74 73 72 72 71 69 68 66 66 67 69 73 76 77 78 77 77 76
55 56 56 56 57 58 66 57 56 61 58 59 59 59 59 59 59 63 62 66 67 69 69 71 72 73 71 69 68 69 69 68 66 67 68 70 73 76 77 77 76 76 76
54 56 57 57 56 56 56 54 54 55 55 56 58 58 58 59 57 57 57 57 57 64 61 63 64 67 67 67 67 68 68 67 68 68 70 71 73 76 77 77 77 76 76
55 55 56 56 56 55 54 54 54 54 55 55 56 58 56 55 55 55 55 56 56 56 57 56 57 60 63 66 66 66 66 66 67 69 69 68 71 74 77 77 77 76 75
56 55 55 55 55 56 54 53 53 53 54 54 56 57 57 55 55 55 55 55 55 55 56 56 55 57 58 61 64 65 65 66 67 67 66 65 68 70 74 77 78 77 76
56 55 56 57 56 56 54 53 53 53 54 54 54 55 57 56 54 56 55 56 55 55 56 55 55 56 56 57 59 62 64 64 65 69 68 68 67 68 70 73 76 77 77
55 56 56 57 56 54 54 53 53 53 55 53 54 55 56 56 54 54 54 55 56 57 56 56 56 56 56 58 56 59 60 62 63 64 65 65 66 66 67 71 73 75 76
54 55 56 60 56 54 53 53 53 53 52 52 52 53 55 55 55 53 54 54 55 56 57 56 55 55 55 54 54 56 57 59 60 61 63 64 64 66 67 68 70 73 73
54 54 54 55 54 53 53 53 52 52 51 51 51 51 54 55 55 52 52 53 54 54 55 55 55 54 54 55 57 57 57 57 58 63 60 61 62 63 64 65 66 66 68
53 53 54 54 54 52 51 51 51 51 51 51 50 52 54 54 55 52 52 52 53 52 53 53 52 55 54 54 58 58 56 57 57 57 57 61 60 62 62 63 63 63 64
52 53 53 53 52 51 49 48 48 48 49 50 51 54 55 56 58 57 52 52 52 54 55 55 55 54 55 56 51 53 54 55 56 57 57 58 59 61 61 61 61 61 61
52 52 52 53 52 51 50 49 49 48 49 50 51 52 53 54 54 55 51 54 55 54 54 54 54 52 55 56 52 49 48 52 55 58 58 59 56 59 61 62 59 57 57
50 50 52 52 52 52 51 50 50 49 49 48 48 48 50 52 52 50 49 49 52 54 52 53 53 52 50 54 56 52 48 47 52 53 54 56 55 58 58 58 56 54 54
50 49 51 52 52 52 51 49 47 46 45 46 46 47 48 50 49 49 49 48 48 49 52 52 54 52 51 50 53 55 54 52 47 45 50 51 52 54 54 53 53 53 52
50 48 49 50 51 51 50 49 47 46 45 46 45 45 46 46 47 48 48 46 46 46 46 47 48 51 51 50 50 50 51 51 52 48 46 48 50 51 51 52 50 49 47
48 48 47 49 50 50 49 48 47 45 45 44 44 43 43 44 45 46 47 45 45 45 44 44 45 45 49 50 49 49 48 46 46 45 45 47 43 47 50 49 48 46 44
MSLP
1017.30 1016.94 1017.01 1017.08 1017.21 1017.29 1017.35 1017.41 1017.50 1017.59 1017.57 1017.53 1017.52 1017.52 1017.53 1017.53 1017.46 1017.43 1017.40 1017.35 1017.28 1017.25 1017.19 1017.09 1016.99 1016.88 1016.89 1016.87 1016.91 1016.94 1016.93 1016.87 1016.82 1016.74 1016.79 1016.83 1016.80 1016.79 1016.77 1016.57 1016.76 1016.74 1016.65
1017.10 1016.98 1017.00 1017.11 1017.28 1017.36 1017.46 1017.56 1017.63 1017.68 1017.68 1017.63 1017.60 1017.58 1017.57 1017.56 1017.56 1017.51 1017.49 1017.42 1017.35 1017.25 1017.20 1017.12 1017.04 1017.01 1016.96 1016.98 1017.02 1017.01 1016.99 1016.97 1016.95 1016.97 1017.01 1017.11 1017.11 1017.01 1016.94 1016.89 1016.88 1016.82 1016.79
1017.25 1016.99 1017.08 1017.23 1017.36 1017.41 1017.50 1017.58 1017.65 1017.70 1017.70 1017.68 1017.64 1017.58 1017.56 1017.52 1017.52 1017.48 1017.46 1017.47 1017.41 1017.28 1017.19 1017.06 1017.12 1017.14 1017.11 1017.09 1017.08 1017.11 1017.10 1017.08 1017.04 1017.04 1017.12 1017.25 1017.25 1017.08 1017.08 1017.06 1016.98 1016.97 1016.92
1017.33 1017.43 1017.42 1017.45 1017.46 1017.46 1017.52 1017.60 1017.63 1017.70 1017.72 1017.72 1017.72 1017.65 1017.57 1017.50 1017.47 1017.45 1017.41 1017.40 1017.40 1017.34 1017.29 1017.20 1017.18 1017.22 1017.26 1017.24 1017.20 1017.15 1017.13 1017.14 1017.13 1017.17 1017.20 1017.17 1017.18 1017.04 1017.02 1017.01 1017.01 1016.97 1016.99
1017.89 1017.89 1017.87 1017.84 1017.84 1017.78 1017.78 1017.81 1017.78 1017.75 1017.69 1017.71 1017.70 1017.66 1017.58 1017.47 1017.38 1017.31 1017.29 1017.27 1017.28 1017.28 1017.26 1017.20 1017.17 1017.18 1017.18 1017.20 1017.19 1017.15 1017.14 1017.07 1017.08 1017.18 1017.29 1017.19 1017.17 1016.95 1016.86 1016.83 1016.82 1016.90 1017.00
1018.38 1018.31 1018.16 1018.10 1018.15 1018.06 1018.04 1018.07 1018.02 1018.01 1017.92 1017.85 1017.75 1017.62 1017.51 1017.45 1017.37 1017.25 1017.15 1017.13 1017.13 1017.13 1017.12 1017.10 1017.07 1017.05 1017.08 1017.08 1017.08 1017.02 1016.99 1016.99 1016.99 1017.08 1017.22 1017.07 1016.88 1016.64 1016.61 1016.72 1016.81 1016.91 1016.95
1018.71 1018.62 1018.47 1018.43 1018.48 1018.41 1018.30 1018.27 1018.25 1018.22 1018.15 1018.03 1017.92 1017.75 1017.57 1017.39 1017.25 1017.18 1017.07 1017.01 1016.94 1016.92 1016.93 1016.93 1016.92 1016.87 1016.88 1016.91 1016.90 1016.86 1016.84 1016.82 1016.84 1016.83 1016.95 1016.91 1016.70 1016.47 1016.35 1016.49 1016.60 1016.71 1016.84
1018.98 1019.05 1018.97 1018.86 1018.86 1018.74 1018.63 1018.56 1018.45 1018.37 1018.27 1018.13 1017.98 1017.83 1017.71 1017.58 1017.46 1017.27 1017.10 1016.96 1016.87 1016.79 1016.71 1016.66 1016.63 1016.64 1016.61 1016.59 1016.62 1016.65 1016.66 1016.68 1016.68 1016.68 1016.63 1016.64 1016.47 1016.29 1016.10 1016.18 1016.37 1016.44 1016.56
1019.25 1019.32 1019.42 1019.42 1019.32 1019.19 1019.03 1018.92 1018.73 1018.55 1018.39 1018.29 1018.12 1018.00 1017.87 1017.74 1017.65 1017.43 1017.18 1016.92 1016.70 1016.58 1016.51 1016.42 1016.37 1016.35 1016.28 1016.30 1016.28 1016.33 1016.39 1016.44 1016.58 1016.59 1016.47 1016.38 1016.25 1016.05 1015.88 1015.96 1016.06 1016.20 1016.33
1019.70 1019.66 1019.71 1019.72 1019.57 1019.53 1019.43 1019.19 1019.08 1018.88 1018.72 1018.59 1018.45 1018.31 1018.11 1017.94 1017.84 1017.61 1017.37 1017.10 1016.74 1016.43 1016.24 1016.16 1016.08 1016.03 1015.99 1015.97 1015.97 1016.04 1016.05 1016.15 1016.27 1016.28 1016.24 1016.14 1016.05 1015.92 1015.75 1015.64 1015.75 1015.89 1016.02
1020.12 1020.12 1020.02 1020.02 1019.88 1019.74 1019.51 1019.49 1019.42 1019.24 1019.09 1018.94 1018.76 1018.57 1018.42 1018.28 1018.07 1017.77 1017.55 1017.26 1016.96 1016.60 1016.29 1016.08 1015.74 1015.57 1015.51 1015.51 1015.54 1015.59 1015.68 1015.81 1015.89 1015.92 1015.84 1015.67 1015.55 1015.47 1015.37 1015.20 1015.31 1015.46 1015.62
1020.49 1020.47 1020.39 1020.23 1020.12 1019.95 1019.66 1019.81 1019.70 1019.49 1019.43 1019.26 1019.07 1018.86 1018.65 1018.46 1018.26 1017.99 1017.71 1017.39 1017.11 1016.83 1016.49 1016.10 1015.74 1015.36 1015.16 1015.22 1015.20 1015.18 1015.31 1015.32 1015.44 1015.41 1015.32 1015.13 1014.99 1014.87 1014.87 1014.87 1014.93 1015.05 1015.14
1020.50 1020.57 1020.55 1020.44 1020.36 1020.24 1020.12 1020.03 1019.96 1019.80 1019.61 1019.43 1019.22 1019.00 1018.91 1018.67 1018.42 1018.22 1017.96 1017.70 1017.42 1017.01 1016.82 1016.52 1016.12 1015.74 1015.42 1015.13 1014.95 1014.93 1014.83 1014.87 1014.92 1014.85 1014.71 1014.60 1014.47 1014.39 1014.34 1014.39 1014.49 1014.70 1014.73
1020.54 1020.64 1020.69 1020.66 1020.59 1020.48 1020.38 1020.26 1020.11 1019.96 1019.81 1019.63 1019.38 1019.14 1019.12 1019.01 1018.76 1018.55 1018.23 1018.00 1017.66 1017.34 1017.05 1016.76 1016.47 1016.01 1015.56 1015.20 1014.98 1014.74 1014.63 1014.57 1014.44 1014.35 1014.23 1014.17 1014.10 1014.01 1013.88 1013.75 1013.84 1014.20 1014.36
1020.42 1020.58 1020.58 1020.56 1020.61 1020.56 1020.52 1020.51 1020.34 1020.23 1019.99 1019.86 1019.59 1019.34 1019.30 1019.13 1018.98 1018.64 1018.29 1018.07 1017.74 1017.38 1017.15 1016.83 1016.49 1016.08 1015.71 1015.30 1014.92 1014.71 1014.46 1014.26 1014.12 1014.06 1014.09 1013.99 1013.87 1013.89 1013.68 1013.40 1013.41 1013.46 1013.67
1020.35 1020.39 1020.42 1020.53 1020.54 1020.59 1020.66 1020.73 1020.56 1020.48 1020.16 1019.94 1019.84 1019.67 1019.49 1019.39 1019.27 1018.83 1018.50 1018.16 1017.76 1017.36 1017.05 1016.76 1016.47 1016.16 1015.81 1015.42 1015.05 1014.63 1014.37 1014.18 1013.95 1013.71 1013.66 1013.53 1013.53 1013.50 1013.37 1013.14 1013.00 1012.93 1013.07
1020.26 1020.32 1020.34 1020.31 1020.55 1020.71 1020.72 1020.68 1020.72 1020.62 1020.36 1020.27 1020.18 1020.02 1019.87 1019.73 1019.56 1019.30 1018.89 1018.49 1018.04 1017.56 1017.07 1016.65 1016.24 1015.95 1015.76 1015.34 1015.08 1014.69 1014.30 1014.07 1013.97 1013.88 1013.79 1013.68 1013.47 1013.29 1013.15 1012.93 1012.76 1012.62 1012.64
1020.28 1020.45 1020.41 1020.29 1020.49 1020.65 1020.62 1020.69 1020.74 1020.72 1020.59 1020.54 1020.46 1020.35 1020.16 1019.96 1019.80 1019.56 1019.22 1018.93 1018.44 1017.89 1017.44 1017.06 1016.67 1016.17 1015.72 1015.40 1015.11 1014.65 1014.35 1014.02 1013.74 1013.59 1013.52 1013.42 1013.28 1013.08 1012.87 1012.65 1012.41 1012.24 1012.23
1020.28 1020.42 1020.56 1020.62 1020.65 1020.66 1020.68 1020.80 1020.81 1020.73 1020.66 1020.55 1020.53 1020.46 1020.30 1020.09 1019.90 1019.76 1019.53 1019.18 1018.75 1018.33 1017.89 1017.57 1017.02 1016.72 1016.29 1015.77 1015.16 1014.58 1014.27 1014.04 1013.82 1013.49 1013.41 1013.25 1013.16 1012.98 1012.76 1012.44 1012.22 1012.07 1012.02
1020.19 1020.35 1020.53 1020.59 1020.61 1020.60 1020.69 1020.81 1020.80 1020.74 1020.63 1020.58 1020.53 1020.30 1020.17 1020.05 1019.89 1019.87 1019.68 1019.42 1019.06 1018.75 1018.29 1017.92 1017.40 1016.94 1016.60 1016.26 1015.38 1014.92 1014.38 1013.88 1013.67 1013.60 1013.56 1013.28 1013.31 1013.11 1012.92 1012.57 1012.34 1012.08 1011.93
1020.29 1020.41 1020.50 1020.59 1020.68 1020.69 1020.80 1021.01 1021.01 1021.02 1020.78 1020.71 1020.46 1020.17 1020.09 1019.93 1019.89 1019.75 1019.74 1019.44 1019.16 1018.99 1018.70 1018.30 1017.78 1017.29 1016.77 1016.46 1015.84 1015.21 1014.37 1013.89 1013.91 1013.78 1013.82 1013.80 1013.75 1013.47 1013.21 1012.92 1012.87 1012.85 1012.58
1020.36 1020.53 1020.63 1020.60 1020.64 1020.65 1020.80 1020.91 1020.86 1020.81 1020.78 1020.72 1020.54 1020.37 1020.28 1020.15 1020.07 1019.99 1019.97 1019.59 1019.30 1019.23 1018.97 1018.62 1018.17 1017.71 1017.22 1016.98 1016.69 1016.08 1015.32 1014.48 1014.24 1014.33 1014.28 1014.27 1014.30 1013.98 1013.66 1013.49 1013.51 1013.70 1013.58
1020.48 1020.53 1020.43 1020.37 1020.42 1020.53 1020.73 1020.78 1020.78 1020.76 1020.86 1020.96 1020.83 1020.68 1020.51 1020.30 1020.29 1020.36 1020.22 1020.00 1019.55 1019.45 1019.24 1018.90 1018.52 1018.10 1017.77 1017.27 1016.87 1016.76 1016.26 1015.85 1015.47 1014.52 1014.76 1014.60 1014.51 1014.32 1014.19 1014.02 1014.27 1014.45 1014.37
1020.25 1020.33 1020.30 1020.36 1020.42 1020.53 1020.71 1020.86 1021.03 1021.21 1021.33 1021.21 1021.04 1020.84 1020.60 1020.32 1020.30 1020.18 1020.06 1020.01 1019.87 1019.54 1019.28 1019.02 1018.70 1018.45 1018.15 1017.68 1017.22 1017.06 1017.06 1017.00 1016.56 1015.74 1015.07 1014.88 1014.87 1014.89 1014.98 1015.01 1015.01 1015.13 1015.08
1020.21 1020.32 1020.27 1020.28 1020.37 1020.58 1020.74 1020.81 1021.02 1021.28 1021.25 1021.11 1021.06 1020.93 1020.78 1020.61 1020.44 1020.26 1020.20 1020.18 1020.03 1019.78 1019.50 1019.31 1019.09 1018.82 1018.51 1018.20 1017.99 1017.76 1017.46 1017.24 1017.05 1016.92 1016.00 1015.59 1015.41 1015.45 1015.57 1015.63 1015.74 1015.83 1015.85
1020.12 1020.32 1020.44 1020.38 1020.33 1020.39 1020.58 1020.66 1020.94 1021.23 1021.29 1021.33 1021.18 1021.08 1020.89 1020.78 1020.67 1020.45 1020.22 1020.19 1020.05 1019.88 1019.65 1019.29 1019.09 1019.00 1018.85 1018.59 1018.50 1018.37 1018.18 1018.09 1017.93 1017.86 1017.33 1016.70 1016.55 1015.92 1016.00 1016.18 1016.25 1016.36 1016.27
Wind_Speed
0 3 5 8 8 7 7 7 6 6 5 5 4 4 5 5 5 5 4 4 3 2 2 4 5 6 5 6 6 6 6 7 6 7 8 7 7 7 7 8 6 3 6
3 4 5 8 7 7 6 6 5 4 3 3 3 3 3 3 3 3 3 2 2 2 1 1 2 3 4 4 5 4 4 4 4 4 5 5 3 4 6 7 6 5 6
6 6 6 8 6 6 5 5 4 2 1 1 1 2 2 2 2 2 2 1 2 1 2 5 2 3 2 3 3 2 2 2 1 1 2 1 0 1 3 4 5 4 4
8 7 7 10 9 7 5 3 3 2 1 1 2 2 2 2 2 2 2 1 2 2 4 3 2 1 1 1 1 1 1 2 3 3 2 3 4 5 4 5 4 4 3
8 6 7 11 11 11 10 9 7 4 1 2 3 3 4 4 4 4 3 3 3 4 4 3 3 3 3 3 3 3 3 4 5 4 3 4 4 10 9 7 6 5 3
7 5 7 11 10 10 10 9 9 8 8 7 6 4 5 6 6 7 6 5 6 6 6 7 6 7 6 5 5 6 5 5 6 4 3 6 6 10 11 8 8 7 5
6 6 6 10 11 11 10 10 9 9 9 9 8 7 7 7 8 9 8 8 8 8 8 9 9 9 9 8 8 8 8 7 4 5 3 5 5 11 12 10 9 8 7
8 7 7 10 11 10 10 11 10 8 8 9 8 9 9 9 10 11 12 11 10 11 11 11 11 11 10 11 10 9 8 8 5 5 5 4 8 11 14 12 11 10 9
7 7 6 6 8 10 10 12 12 12 10 12 12 11 10 10 11 13 13 14 14 12 12 12 12 13 12 12 12 10 9 9 5 4 6 4 9 11 12 13 12 11 10
6 7 6 6 6 6 5 13 13 13 15 13 14 14 13 11 12 13 13 14 16 14 11 12 13 13 13 13 13 11 10 10 6 5 5 5 12 13 15 14 14 13 13
5 6 5 6 6 6 5 7 10 12 13 12 11 12 8 5 6 7 9 12 15 17 16 16 14 14 13 12 12 11 10 4 5 5 4 11 16 17 17 16 16 16 15
3 3 4 5 5 5 4 6 6 6 5 5 5 6 5 5 5 7 8 12 15 15 16 18 17 15 10 4 4 9 5 6 5 6 6 15 19 19 18 16 16 17 16
3 2 4 4 4 5 4 3 3 3 3 4 6 5 5 5 4 4 4 4 5 8 5 8 8 6 7 4 4 5 6 6 5 5 9 15 20 20 19 17 17 18 17
4 3 3 4 4 4 3 3 3 3 3 4 4 6 4 3 4 4 3 5 4 3 6 5 4 6 6 6 6 6 6 5 4 5 7 13 18 21 20 19 18 20 19
5 3 3 3 4 4 5 4 4 4 4 4 5 5 4 4 5 4 4 4 4 4 3 5 5 5 6 6 5 5 6 6 6 4 3 10 11 15 20 20 19 21 22
5 4 2 2 4 4 4 4 4 4 4 4 4 5 6 4 5 4 5 5 5 4 4 4 4 4 5 4 6 6 5 5 5 5 3 5 11 12 15 17 19 19 21
4 5 3 3 4 4 3 4 4 4 5 4 4 6 6 6 6 6 5 6 6 7 7 5 5 3 4 4 5 5 5 5 4 5 4 4 5 8 11 16 20 19 20
5 4 3 3 4 3 3 3 3 3 3 4 4 4 6 6 6 5 6 6 8 6 6 6 5 6 4 4 4 5 4 4 4 4 4 4 4 4 6 11 14 15 18
6 5 3 2 2 2 2 2 2 3 3 3 3 3 5 5 5 4 5 5 7 6 6 7 7 4 6 6 6 4 4 4 5 4 6 5 5 5 5 7 11 12 14
6 5 4 3 2 2 2 1 2 2 2 2 2 2 4 4 5 4 4 5 5 6 6 7 7 6 5 7 7 5 5 4 4 4 4 4 5 5 5 6 5 5 9
5 5 5 3 1 2 2 1 1 1 2 1 2 4 4 4 6 6 4 4 4 7 8 9 7 9 6 9 4 6 5 4 5 4 4 4 7 6 7 7 6 7 8
5 5 4 4 2 2 1 1 1 1 1 1 2 3 3 4 4 5 5 4 7 6 7 6 7 5 5 7 4 3 4 4 5 5 5 6 7 6 7 8 10 10 9
6 7 6 5 4 2 2 0 2 2 2 3 3 2 3 3 5 5 5 5 4 6 5 6 6 7 5 6 7 2 4 3 6 1 3 4 6 6 7 6 10 12 11
8 6 6 4 3 3 2 1 1 1 1 2 2 1 2 3 3 3 4 4 4 3 4 3 4 4 4 4 4 6 3 2 2 5 3 4 5 6 8 7 7 9 9
6 7 6 4 3 3 3 3 2 3 2 1 1 1 2 2 2 3 4 4 4 3 4 5 5 5 4 3 3 3 3 4 1 2 4 5 3 5 5 7 7 6 9
4 4 4 5 5 5 4 4 5 5 4 3 2 2 2 1 2 3 3 3 3 4 4 3 2 4 4 4 4 4 4 3 3 3 2 6 5 3 4 5 7 6 6
Wind_Direction
150 135 144 132 122 109 97 91 79 74 69 68 66 66 66 65 70 72 70 70 70 64 36 23 34 56 80 83 73 57 50 49 64 89 105 105 113 110 83 112 85 82 80
110 115 124 120 122 116 106 104 98 89 71 62 61 56 55 56 54 57 58 52 49 70 52 350 31 52 70 78 80 67 58 63 63 56 78 76 77 98 101 100 98 99 85
74 70 98 111 117 117 122 120 121 120 97 53 29 38 35 37 25 30 43 20 6 23 356 295 92 55 63 73 84 77 49 29 9 53 99 99 278 137 120 119 120 116 98
71 51 62 86 86 86 93 115 150 177 215 297 323 320 313 324 329 328 328 304 296 314 349 15 90 95 87 6 327 280 232 285 299 301 302 258 246 220 181 157 143 134 123
62 54 68 77 75 71 64 56 52 42 337 262 267 282 290 295 289 286 286 274 270 275 289 275 224 222 226 248 267 272 265 257 279 300 305 283 266 243 205 180 168 165 166
78 70 78 80 76 72 65 55 47 37 28 21 6 321 284 286 286 282 276 257 260 261 264 266 268 241 239 243 252 257 256 256 274 286 281 282 288 226 197 190 188 186 186
84 57 59 68 64 60 56 47 39 29 17 10 359 349 339 323 310 292 282 270 261 257 262 264 264 263 248 243 248 253 256 266 250 273 262 280 303 240 206 194 189 189 202
82 57 44 44 46 42 40 31 27 18 9 0 351 343 338 334 328 319 309 294 271 267 263 262 261 262 260 247 250 251 249 255 252 261 267 267 281 280 224 200 204 204 208
70 66 51 41 34 30 32 25 22 15 354 359 351 345 338 331 339 337 320 305 294 276 267 264 263 264 262 256 250 243 244 249 243 252 266 251 263 285 267 214 207 211 215
62 58 45 34 28 24 26 21 21 21 21 20 22 19 16 15 358 356 7 352 338 304 277 268 265 261 260 257 250 242 241 247 242 241 250 257 258 262 265 254 219 218 219
52 48 45 33 27 17 31 20 19 19 19 19 20 13 9 4 357 2 357 1 0 359 338 307 283 261 253 245 249 248 242 232 230 235 238 250 263 264 263 269 218 220 222
87 50 43 39 32 24 25 19 14 14 14 15 8 7 5 7 355 0 356 359 355 352 351 352 333 297 274 237 243 245 242 230 230 236 239 241 251 257 257 259 223 221 222
139 76 44 36 34 31 26 20 10 6 6 2 2 5 359 360 357 356 349 350 346 348 347 342 343 340 315 272 236 235 237 224 235 239 244 242 250 253 254 249 235 228 226
132 110 67 41 30 25 25 22 9 14 1 356 347 358 7 355 355 344 344 331 337 328 329 333 326 322 325 305 268 252 240 234 238 243 245 242 251 256 256 251 244 231 231
127 109 59 50 34 23 39 12 11 359 1 342 357 356 360 360 346 332 335 326 324 324 314 321 324 325 326 324 307 269 259 248 244 242 253 265 263 268 268 260 258 235 233
138 126 91 59 41 39 45 19 8 359 345 5 13 11 16 11 356 349 332 329 325 321 308 304 301 305 308 320 319 317 289 280 274 260 249 258 260 262 273 287 274 253 247
157 151 134 101 62 60 38 26 26 19 36 39 23 20 14 16 0 349 347 350 345 335 325 321 313 301 306 310 302 309 309 308 299 294 289 273 282 272 265 272 269 266 263
149 154 115 72 73 70 56 46 45 35 38 38 33 16 11 12 8 357 358 354 343 340 344 347 342 329 318 308 305 301 303 303 298 292 285 284 277 282 277 271 279 289 277
158 146 135 104 82 67 68 68 52 44 45 50 43 26 9 9 10 10 358 347 350 350 354 349 342 344 336 347 321 299 306 297 296 306 299 305 302 294 295 283 277 277 281
156 150 141 148 123 97 89 48 29 21 3 56 26 28 19 5 9 10 352 345 353 356 356 355 344 353 329 353 326 331 303 289 292 300 314 319 346 352 344 341 316 304 281
157 159 175 160 106 91 53 13 1 322 313 9 351 359 7 13 11 356 342 347 358 4 1 358 352 348 352 358 340 334 308 333 16 359 34 40 24 8 13 19 26 22 15
172 188 179 171 158 129 138 215 199 234 285 263 318 343 337 28 21 9 342 341 5 360 0 353 358 346 347 357 344 299 332 334 10 10 50 37 22 2 12 24 36 28 22
188 195 193 194 184 172 178 15 12 18 8 359 348 344 335 22 42 23 5 354 352 360 358 356 352 356 347 348 345 355 345 4 340 9 55 32 14 360 3 24 37 32 23
208 197 199 198 194 205 176 131 161 191 228 244 242 266 350 40 71 44 25 12 351 339 350 342 0 345 347 347 320 11 0 291 314 315 343 5 2 18 25 38 38 34 21
189 199 207 205 214 223 211 192 196 223 233 259 278 297 345 12 43 23 22 5 2 3 1 6 358 360 1 359 10 344 319 305 32 297 305 331 350 11 50 42 46 39 21
205 217 224 215 230 227 218 220 216 225 238 247 253 255 290 295 306 340 353 353 338 349 355 352 346 11 354 22 22 17 20 1 7 338 317 323 330 323 63 57 44 31 21